sat.trackr.live / text

‹ back to catalog

STARLINK-36564

NORAD 67549 · 2026-014T

PAYLOAD ACTIVE UNKNOWN

§ Identity

Operator
Country
US
Launch date
2026-01-22
Launch site
AFWTR
Launch vehicle
Mass (kg)
RCS (m²)

Purposes: comms

External: N2YO · Heavens-Above · Gunter

§ Orbital elements

Epoch: 2026-09-19T10:42:02.658240Z

Period
93.91 min
Inclination
97.2850°
Eccentricity
0.0001680
Mean motion
15.33463433 rev/d
Perigee alt
464.3 km
Apogee alt
466.6 km
Semi-major
6,843.6 km
B*
3.6735e-4
RAAN
147.7798°
Arg perigee
91.4539°
Mean anomaly
268.6897°
Rev number
3,841

§ Raw data

STARLINK-365641 67549U 26014T   26262.44586410  .00011810  00000+0  36735-3 0  99912 67549  97.2850 147.7798 0001680  91.4539 268.6897 15.33463433 38410

JSON: /api/v1/satellites/67549 · /tle

For live sub-satellite position, see the globe view (requires WebGL).

§ Visibility from observer

Set your observer location to see the next 7 days of passes ≥ 10°. The values pass through the URL so the page stays shareable.

No JS? Fill the form by hand. The geolocation button needs JavaScript.